Regional Weather Roundup
Issued by NWS

Home | Current Version | Previous Version | Text Only | Print | Product List | Glossary On
Versions: 1 2 3 4 5 6 7 8 9 10 11 12 13 14 15 16 17 18 19 20 21 22 23 24 25 26 27 28 29 30 31 32 33 34 35 36 37 38 39 40 41 42 43 44 45 46 47 48 49 50
000
ASUS44 KFWD 291715
RWRTX
NORTH TEXAS HOURLY WEATHER ROUNDUP
NATIONAL WEATHER SERVICE FORT WORTH TX
1200 PM CDT SUN MAY 29 2016

NOTE: "FAIR" INDICATES FEW OR NO CLOUDS BELOW 12,000 FEET WITH NO
SIGNIFICANT WEATHER AND/OR OBSTRUCTIONS TO VISIBILITY.

TXZ118-119-291800-
DALLAS/FORT WORTH METROPLEX

CITY           SKY/WX    TMP DP  RH WIND       PRES   REMARKS
DFW AIRPORT    CLOUDY    82  68  62 S5        30.08S
DALLAS LOVE    CLOUDY    81  68  64 SE8       30.08R
FTW MEACHAM    CLOUDY    84  66  54 E8        30.08S
DAL-EXECUTIVE  PTSUNNY   80  67  64 E7        30.08S
FTW-ALLIANCE   CLOUDY    84  64  50 SE6       30.09R
FTW-NAS-JRB    PTSUNNY   84  66  54 E7        30.09S
FTW-SPINKS     SUNNY     84  70  61 SE5       30.10S
ARLINGTON      MOSUNNY   85  69  58 E7        30.08S
GRAND PRAIRIE  SUNNY     82  66  57 SE9       30.09S
ADDISON        PTSUNNY   79  68  69 E8        30.09S
MESQUITE       SUNNY     79  68  69 CALM      30.08F
LANCASTER      CLOUDY    77  66  69 E3        30.09S
$$

TXZ091>094-102>105-117-120-121-131>134-291800-
NORTH CENTRAL TEXAS

CITY           SKY/WX    TMP DP  RH WIND       PRES   REMARKS
SHRMAN/DENISON CLOUDY    73  60  65 NE7       30.14R
GAINESVILLE    CLOUDY    79  63  57 CALM      30.12S
BOWIE          SUNNY     82  63  51 SE3       30.11S
BRIDGEPORT     SUNNY     82  65  57 S7        30.11F
DECATUR        MOSUNNY   82  60  47 S5        30.11S
DENTON         MOSUNNY   82  64  54 S5        30.09R
MCKINNEY       CLOUDY    79  67  66 CALM      30.10R
GREENVILLE       N/A     79  63  57 E5        30.11F
ROCKWALL       CLOUDY    81  67  63 CALM      30.08F
TERRELL        CLOUDY    82  67  60 E9        30.09F
WAXAHACHIE     MOSUNNY   82  70  66 SE6       30.10R
CLEBURNE       SUNNY     82  73  74 CALM      30.11S
GRANBURY       MOSUNNY   81  66  59 SE7       30.10S
$$

TXZ083>090-098>101-113>116-127>130-139>142-154-155-291800-
WESTERN NORTH TEXAS

CITY           SKY/WX    TMP DP  RH WIND       PRES   REMARKS
WICHITA FALLS  SUNNY     83  60  45 VRB6      30.10S
WF-KICKAPOO    SUNNY     84  59  42 S3        30.11F
VERNON         SUNNY     82  53  36 CALM      30.13S
ABILENE        SUNNY     80  66  62 SW7       30.11S
ABILENE-DYESS  SUNNY     81  64  55 S8        30.10S
BRECKENRIDGE   SUNNY     80  64  56 S8        30.10S HAZE
GRAHAM         SUNNY     82  64  54 S7        30.09R
MINERAL WELLS  SUNNY     81  63  54 SE7       30.08S
STEPHENVILLE   CLOUDY    78  66  66 SE8       30.13F
COMANCHE       MOSUNNY   80  67  63 S7        30.11F
BROWNWOOD      MOSUNNY   81  63  54 S10       30.11S
COLEMAN        SUNNY     81  62  51 SW10      30.12S
$$

TXZ143>147-156>162-174-175-291800-
CENTRAL TEXAS

CITY           SKY/WX    TMP DP  RH WIND       PRES   REMARKS
WACO           PTSUNNY   84  71  65 SE10      30.08R
WACO-TSTC      SUNNY     84  72  65 SE8       30.08S
WACO-MCGREGOR  CLOUDY    83  73  72 SE9       30.08R
HILLSBORO      MOSUNNY   83  71  65 E8        30.09R
CORSICANA      CLOUDY    84  73  69 E9        30.09S HX  90
MEXIA          CLOUDY    82  73  74 S14G20    30.09R
HEARNE         MOSUNNY   80  71  73 SE9       30.10F
CAMERON        PTSUNNY   83  70  62 S7        30.09S
TEMPLE         CLOUDY    81  72  74 SE13      30.08F
KILLEEN        CLOUDY    82  69  65 S9G17     30.09R
KILLEEN-SKYLRK CLOUDY    82  71  69 E13       30.09S
FORT HOOD      CLOUDY    81  69  67 SE12      30.07R
GATESVILLE     MOSUNNY   81  66  61 E5        30.11F
HAMILTON       SUNNY     82  64  54 SE6       30.12S
LAMPASAS       PTSUNNY   81  68  65 SE8G17    30.10R
$$

TXZ095>097-106>112-122>126-135>138-148>153-164>167-291800-
EAST TEXAS

CITY           SKY/WX    TMP DP  RH WIND       PRES   REMARKS
PARIS          CLOUDY    81  63  54 NE5       30.14R
SULPHUR SPRNGS CLOUDY    82  64  53 CALM      30.14S
MOUNT PLEASANT CLOUDY    83  70  63 NE3       30.14S
GILMER         CLOUDY    83  71  67 CALM      30.13R
MINEOLA        PTSUNNY  N/A N/A N/A MISG        N/A
TYLER          PTSUNNY   82  72  71 E7        30.12S
LONGVIEW       CLOUDY    84  70  62 CALM      30.11F
MARSHALL       CLOUDY    85  72  64 CALM      30.15S HX  91
ATHENS         CLOUDY    81  72  74 E7        30.08F
PALESTINE      PTSUNNY   84  73  69 E6        30.10F
JACKSONVILLE   MOSUNNY   85  70  61 S5        30.14F
HENDERSON      PTSUNNY   83  71  67 CALM      30.14S
CENTER         FAIR      84  70  62 CALM      30.13F
NACOGDOCHES    CLOUDY    82  72  69 CALM      30.13S
LUFKIN         CLOUDY    81  70  69 CALM      30.13S
$$

SUPPLEMENTAL OBSERVATIONS (CENTRAL)

CITY           SKY/WX    TMP DP  RH WIND       PRES   REMARKS
LAKE TEXOMA      N/A     77  66  69 E3          N/A
CADDO GRASSLND   N/A     75  66  73 E3          N/A
PAT MAYSE LAKE   N/A     79  72  78 NE1         N/A
GREENVILLE       N/A     79  64  61 E6          N/A
CEDAR HILL       N/A     88  72  58 E2          N/A  HX  94
ATHENS           N/A     82  75  78 SE10        N/A
MCGREGOR         N/A     84  72  65 SE8G18      N/A
TEMPLE           N/A     82  70  65 SE12        N/A
$$

SUPPLEMENTAL OBSERVATIONS (WEST)

CITY           SKY/WX    TMP DP  RH WIND       PRES   REMARKS
MILLERS CREEK    N/A     82  63  51 SW9         N/A
POSSUM KINGDOM   N/A     82  63  51 SE8         N/A
LBJ GRASSLAND    N/A     84  64  51 S7          N/A
GRANBURY         N/A     81  64  57 SE8         N/A
HAMBY            N/A     82  64  54 SW10        N/A
COLORADO BEND    N/A     82  59  44 SW10G25     N/A
$$

SUPPLEMENTAL OBSERVATIONS (EAST)

CITY           SKY/WX    TMP DP  RH WIND       PRES   REMARKS
CLARKSVILLE      N/A     82  70  65 N1          N/A
TEXARKANA        N/A     88  73  62 W3          N/A  HX  96
LINDEN           N/A     88  72  58 SW3         N/A  HX  94
CADDO LAKE       N/A     88  73  62 N1          N/A  HX  96
GILMER           N/A     88  72  58 S2          N/A  HX  94
HENDERSON        N/A     86  73  66 W5          N/A  HX  93
LUFKIN           N/A     82  72  69 MISG        N/A
S SABINE NF      N/A     84  68  58 S2          N/A
$$

SUPPLEMENTAL OBSERVATIONS ARE A COLLECTION OF AUTOMATED INSTRUMENTS
THAT ARE MAINTAINED BY A VARIETY OF FEDERAL AND STATE AGENCIES.
CERTAIN ELEMENTS...SUCH AS HUMIDITY VALUES AND SUSTAINED WIND
SPEEDS...MAY BE APPROXIMATED.





USA.gov is the U.S. government's official web portal to all federal, state and local government web resources and services.